Weather History for KLCG - September, 2013

Change the Weather History Date:

Sunday, September 15, 2013

  Actual Average (KOFK) Record (KOFK)
Temperature  
Mean Temperature 66 °F 64 °F  
Max Temperature 71 °F 77 °F 99 °F (1955)
Min Temperature 61 °F 51 °F 30 °F (1916)
Degree Days  
Heating Degree Days 0 4  
Month to date heating degree days 35  
Since 1 July heating degree days 51  
Cooling Degree Days 1 3  
Month to date cooling degree days 66  
Year to date cooling degree days 882  
Growing Degree Days 16 (Base 50)    
Moisture  
Dew Point 55 °F    
Average Humidity 71    
Maximum Humidity 87    
Minimum Humidity 50    
Precipitation  
Precipitation 0.00 in 0.09 in 1.96 in (1988)
Month to date precipitation 1.35  
Year to date precipitation 21.88  
Snow  
Snow 0.00 in 0.00 in - ()
Month to date snowfall 0.0  
Since 1 July snowfall 0.0  
Snow Depth -    
Sea Level Pressure  
Sea Level Pressure 30.07 in    
Wind  
Wind Speed 9 mph (NNE)    
Max Wind Speed 17 mph    
Max Gust Speed 24 mph    
Visibility 10 miles    
Events      
T = Trace of Precipitation, MM = Missing Value Source: NWS Daily Summary

Daily Weather History Graph

Daily Weather History Graph

Search for Another Location

Airport or City:

Trip Planner

Search our weather history database for the weather conditions in past years. The results will help you decide how hot, cold, wet, or windy it might be!

Date:

Astronomy

Sep. 15, 2013 Rise Set
Actual Time 7:08 AM CDT 7:37 PM CDT
Civil Twilight 6:40 AM CDT 8:05 PM CDT
Nautical Twilight 6:06 AM CDT 8:38 PM CDT
Astronomical Twilight 5:32 AM CDT 9:12 PM CDT
Moon 5:08 PM CDT (9/15) 2:43 AM CDT (9/15)
Length of Visible Light 13h 25m
Length of Day
12h 28m
Waxing Gibbous, 82% of the Moon is Illuminated
Sep 15
Waxing Gibbous
Sep 19
Full
Sep 26
Last Quarter
Oct 4
New
Oct 11
First Quarter

Hourly Weather History & Observations

Time (CDT) Temp. Dew Point Humidity Pressure Visibility Wind Dir Wind Speed Gust Speed Precip Events Conditions
12:15 AM 61.0 °F 56.3 °F 85% 29.86 in 10.0 mi SSW 5.8 mph - N/A   Clear
12:35 AM 61.7 °F 56.5 °F 83% 29.86 in 10.0 mi SSW 4.6 mph - N/A   Clear
12:55 AM 61.5 °F 56.5 °F 83% 29.85 in 10.0 mi SSW 4.6 mph - N/A   Clear
1:15 AM 61.2 °F 56.5 °F 85% 29.85 in 10.0 mi SSW 4.6 mph - N/A   Scattered Clouds
1:35 AM 62.1 °F 57.2 °F 84% 29.85 in 10.0 mi SSW 5.8 mph - N/A   Mostly Cloudy
1:55 AM 61.7 °F 57.4 °F 86% 29.84 in 10.0 mi SSW 5.8 mph - N/A   Scattered Clouds
2:15 AM 63.1 °F 57.7 °F 83% 29.84 in 10.0 mi SSW 5.8 mph - N/A   Clear
2:35 AM 62.1 °F 57.9 °F 86% 29.84 in 10.0 mi SSW 4.6 mph - N/A   Scattered Clouds
2:55 AM 62.1 °F 58.1 °F 87% 29.85 in 10.0 mi Calm Calm - N/A   Mostly Cloudy
3:15 AM 65.7 °F 59.2 °F 80% 29.86 in 10.0 mi WSW 4.6 mph - N/A   Overcast
3:35 AM 65.8 °F 59.4 °F 80% 29.86 in 10.0 mi SW 8.1 mph - N/A   Overcast
3:55 AM 66.6 °F 59.9 °F 79% 29.87 in 10.0 mi WNW 10.4 mph - N/A   Overcast
4:15 AM 67.1 °F 60.4 °F 79% 29.87 in 10.0 mi NW 11.5 mph 19.6 mph N/A   Overcast
4:35 AM 65.5 °F 60.1 °F 83% 29.88 in 10.0 mi NNW 16.1 mph 23.0 mph N/A   Overcast
4:55 AM 64.0 °F 59.5 °F 85% 29.89 in 10.0 mi NNW 10.4 mph 21.9 mph N/A   Overcast
5:15 AM 64.0 °F 59.9 °F 86% 29.90 in 10.0 mi NNW 10.4 mph 18.4 mph N/A   Overcast
5:35 AM 64.0 °F 59.5 °F 85% 29.91 in 10.0 mi NNW 11.5 mph 20.7 mph N/A   Overcast
5:55 AM 63.9 °F 59.4 °F 85% 29.92 in 10.0 mi NW 12.7 mph 16.1 mph N/A   Overcast
6:15 AM 63.7 °F 59.2 °F 85% 29.93 in 10.0 mi NNW 13.8 mph 20.7 mph N/A   Overcast
6:35 AM 63.9 °F 59.2 °F 85% 29.94 in 10.0 mi NNW 13.8 mph 19.6 mph N/A   Overcast
6:55 AM 63.7 °F 58.8 °F 84% 29.96 in 10.0 mi NNW 11.5 mph 18.4 mph N/A   Overcast
7:15 AM 64.0 °F 58.5 °F 82% 29.97 in 10.0 mi NNW 13.8 mph 20.7 mph N/A   Overcast
7:35 AM 63.9 °F 58.3 °F 82% 29.98 in 10.0 mi North 13.8 mph 18.4 mph N/A   Overcast
7:55 AM 63.7 °F 57.7 °F 81% 29.98 in 10.0 mi North 16.1 mph 23.0 mph N/A   Overcast
8:15 AM 63.5 °F 57.6 °F 81% 30.00 in 10.0 mi North 16.1 mph 21.9 mph N/A   Overcast
8:35 AM 63.3 °F 57.0 °F 80% 30.01 in 10.0 mi North 16.1 mph 24.2 mph N/A   Overcast
8:55 AM 62.8 °F 56.8 °F 81% 30.02 in 10.0 mi North 13.8 mph 24.2 mph N/A   Overcast
9:15 AM 62.8 °F 56.5 °F 80% 30.03 in 10.0 mi North 11.5 mph 23.0 mph N/A   Overcast
9:35 AM 63.7 °F 55.9 °F 76% 30.04 in 10.0 mi North 10.4 mph 19.6 mph N/A   Overcast
9:55 AM 63.5 °F 55.9 °F 76% 30.05 in 10.0 mi North 8.1 mph 18.4 mph N/A   Overcast
10:15 AM 63.5 °F 55.6 °F 75% 30.06 in 10.0 mi North 16.1 mph 19.6 mph N/A   Overcast
10:35 AM 63.7 °F 54.7 °F 72% 30.08 in 10.0 mi NNE 15.0 mph 23.0 mph N/A   Overcast
10:55 AM 64.4 °F 54.3 °F 70% 30.09 in 10.0 mi North 15.0 mph 20.7 mph N/A   Overcast
11:15 AM 64.6 °F 54.1 °F 69% 30.09 in 10.0 mi NNE 15.0 mph 20.7 mph N/A   Overcast
11:35 AM 65.3 °F 54.1 °F 67% 30.10 in 10.0 mi NNE 13.8 mph 21.9 mph N/A   Overcast
11:55 AM 65.3 °F 53.6 °F 66% 30.12 in 10.0 mi North 13.8 mph 19.6 mph N/A   Overcast
12:15 PM 65.8 °F 53.4 °F 64% 30.12 in 10.0 mi NNE 17.3 mph 21.9 mph N/A   Overcast
12:35 PM 68.2 °F 53.8 °F 60% 30.13 in 10.0 mi NNE 17.3 mph 21.9 mph N/A   Mostly Cloudy
12:55 PM 68.2 °F 52.7 °F 58% 30.14 in 10.0 mi NE 12.7 mph 23.0 mph N/A   Mostly Cloudy
1:15 PM 68.0 °F 53.1 °F 59% 30.14 in 10.0 mi NE 12.7 mph 20.7 mph N/A   Mostly Cloudy
1:35 PM 68.5 °F 52.9 °F 57% 30.14 in 10.0 mi NNE 16.1 mph 20.7 mph N/A   Mostly Cloudy
1:55 PM 68.9 °F 52.3 °F 55% 30.15 in 10.0 mi NE 16.1 mph 20.7 mph N/A   Mostly Cloudy
2:15 PM 71.4 °F 51.6 °F 50% 30.15 in 10.0 mi NE 13.8 mph 21.9 mph N/A   Scattered Clouds
2:35 PM 70.3 °F 52.0 °F 52% 30.15 in 10.0 mi NNE 12.7 mph 18.4 mph N/A   Mostly Cloudy
2:55 PM 70.0 °F 52.0 °F 53% 30.15 in 10.0 mi NNE 15.0 mph 20.7 mph N/A   Overcast
3:15 PM 69.8 °F 51.3 °F 52% 30.16 in 10.0 mi NE 13.8 mph 21.9 mph N/A   Mostly Cloudy
3:35 PM 69.4 °F 51.6 °F 53% 30.16 in 10.0 mi NNE 16.1 mph 19.6 mph N/A   Mostly Cloudy
3:55 PM 69.1 °F 52.0 °F 54% 30.17 in 10.0 mi North 13.8 mph 20.7 mph N/A   Mostly Cloudy
4:15 PM 68.7 °F 51.4 °F 54% 30.17 in 10.0 mi NNE 12.7 mph 16.1 mph N/A   Mostly Cloudy
4:35 PM 68.0 °F 51.3 °F 55% 30.17 in 10.0 mi NNE 12.7 mph 18.4 mph N/A   Scattered Clouds
4:55 PM 68.4 °F 51.3 °F 54% 30.17 in 10.0 mi NE 11.5 mph 17.3 mph N/A   Scattered Clouds
5:15 PM 69.6 °F 51.8 °F 53% 30.18 in 10.0 mi NNE 12.7 mph 17.3 mph N/A   Scattered Clouds
5:35 PM 69.1 °F 51.4 °F 53% 30.18 in 10.0 mi NE 10.4 mph - N/A   Scattered Clouds
5:55 PM 68.0 °F 52.3 °F 57% 30.19 in 10.0 mi NNE 9.2 mph - N/A   Mostly Cloudy
6:15 PM 68.0 °F 52.7 °F 58% 30.19 in 10.0 mi NNE 8.1 mph - N/A   Overcast
6:35 PM 67.5 °F 52.3 °F 58% 30.20 in 10.0 mi NNE 12.7 mph 17.3 mph N/A   Overcast
6:55 PM 66.6 °F 52.3 °F 60% 30.20 in 10.0 mi NNE 11.5 mph 16.1 mph N/A   Overcast
7:15 PM 65.3 °F 52.9 °F 64% 30.21 in 10.0 mi NNE 10.4 mph - N/A   Overcast
7:35 PM 64.6 °F 52.9 °F 66% 30.21 in 10.0 mi NNE 10.4 mph - N/A   Overcast
7:55 PM 63.5 °F 52.5 °F 67% 30.22 in 10.0 mi NNE 9.2 mph - N/A   Overcast
8:15 PM 63.0 °F 52.7 °F 69% 30.23 in 10.0 mi NNE 8.1 mph - N/A   Overcast
8:35 PM 62.6 °F 52.5 °F 70% 30.24 in 10.0 mi NNE 9.2 mph - N/A   Overcast
8:55 PM 62.6 °F 52.5 °F 70% 30.24 in 10.0 mi NNE 10.4 mph 16.1 mph N/A   Overcast
9:15 PM 62.1 °F 52.7 °F 71% 30.26 in 10.0 mi NNE 9.2 mph - N/A   Overcast
9:35 PM 62.1 °F 52.9 °F 72% 30.27 in 10.0 mi NE 6.9 mph - N/A   Overcast
9:55 PM 61.9 °F 52.9 °F 72% 30.27 in 10.0 mi NNE 5.8 mph - N/A   Overcast
10:15 PM 61.9 °F 52.9 °F 72% 30.27 in 10.0 mi NE 5.8 mph - N/A   Overcast
10:35 PM 62.1 °F 52.7 °F 71% 30.27 in 10.0 mi NE 8.1 mph - N/A   Overcast
10:55 PM 62.1 °F 52.0 °F 70% 30.28 in 10.0 mi ENE 8.1 mph - N/A   Overcast
11:15 PM 62.1 °F 50.9 °F 67% 30.28 in 10.0 mi ENE 8.1 mph - N/A   Overcast
11:35 PM 61.7 °F 51.3 °F 69% 30.28 in 10.0 mi ENE 3.5 mph - N/A   Overcast
11:55 PM 61.3 °F 52.0 °F 71% 30.29 in 10.0 mi Calm Calm - N/A   Overcast